Location: Belloy
(55.7522°N, 118.2333°W)
Time: 23:56:24
(UTC+00:00)

Envisat - Pass Details

Date: 09 December 2021
Orbit: 764 x 766 km, 98.2° (Epoch: 27 January)

Event Time Altitude Azimuth Distance (km) Brightness Sun altitude
Rises 00:23:00 0° 183° (S) 3,224 6.7 -8.0°
Reaches altitude 10° 00:25:24 10° 190° (S) 2,302 6.1 -8.3°
Maximum altitude 00:30:14 44° 262° (W) 1,064 4.4 -8.9°
Drops below altitude 10° 00:35:07 10° 335° (NNW) 2,318 5.5 -9.5°
Sets 00:37:33 0° 342° (NNW) 3,249 6.2 -9.8°
